This is the latest recevied weather packets stored in our database for station/object K5KHP. If no packets are shown the sender has not sent any weather packets the latest 1 day(s).
| Time | Temp. | Humidity | Pressure | Rain* | Wind** | Luminosity | Snow |
|---|---|---|---|---|---|---|---|
| 1777994683 | 15.56° C | 83% | 1013.3 hPa | 0 mm | 0 m/s | 239 W/m² | - |
| 1777994377 | 15° C | 83% | 1013.4 hPa | 0 mm | 0 m/s | 293 W/m² | - |
| 1777994073 | 15° C | 84% | 1013.1 hPa | 0 mm | 0 m/s | 243 W/m² | - |
| 1777993771 | 15° C | 84% | 1013.3 hPa | 0 mm | 0 m/s | 174 W/m² | - |
| 1777993468 | 14.44° C | 85% | 1013.3 hPa | 0 mm | 0 m/s | 107 W/m² | - |
| 1777993167 | 14.44° C | 85% | 1013.5 hPa | 0 mm | 0 m/s | 128 W/m² | - |
| 1777992865 | 13.89° C | 86% | 1013.3 hPa | 0 mm | 0 m/s | 98 W/m² | - |
| 1777992563 | 13.89° C | 87% | 1013.3 hPa | 0 mm | 0 m/s | 98 W/m² | - |
| 1777992261 | 13.33° C | 88% | 1013.3 hPa | 0 mm | 0 m/s | 78 W/m² | - |
| 1777991958 | 12.78° C | 89% | 1013.5 hPa | 0 mm | 0 m/s | 59 W/m² | - |
| 1777991656 | 12.78° C | 89% | 1013.6 hPa | 0 mm | 0 m/s | 58 W/m² | - |
| 1777991353 | 12.78° C | 90% | 1013.5 hPa | 0 mm | 0 m/s | 47 W/m² | - |
| 1777991050 | 12.78° C | 91% | 1013.4 hPa | 0 mm | 0 m/s | 87 W/m² | - |
| 1777990747 | 12.22° C | 91% | 1013.3 hPa | 0 mm | 0 m/s | 54 W/m² | - |
| 1777990444 | 12.22° C | 91% | 1013.4 hPa | 0 mm | 0 m/s | 41 W/m² | - |
| 1777990141 | 11.67° C | 92% | 1013.4 hPa | 0 mm | 0 m/s | 35 W/m² | - |
| 1777989838 | 11.67° C | 92% | 1013.2 hPa | 0 mm | 0 m/s | 32 W/m² | - |
| 1777989535 | 11.67° C | 92% | 1013.4 hPa | 0 mm | 0 m/s | 26 W/m² | - |
| 1777989231 | 11.67° C | 92% | 1013.1 hPa | 0 mm | 0 m/s | 22 W/m² | - |
| 1777988927 | 11.67° C | 92% | 1013.2 hPa | 0 mm | 0 m/s | 19 W/m² | - |
| 1777988624 | 11.67° C | 92% | 1013.3 hPa | 0 mm | 0 m/s | 16 W/m² | - |
| 1777988320 | 11.67° C | 92% | 1013.2 hPa | 0 mm | 0 m/s | 13 W/m² | - |
| 1777988018 | 11.67° C | 93% | 1012.8 hPa | 0 mm | 0 m/s | 11 W/m² | - |
| 1777987713 | 11.67° C | 93% | 1013 hPa | 0 mm | 0 m/s | 9 W/m² | - |
| 1777987411 | 11.11° C | 93% | 1013.1 hPa | 0 mm | 0 m/s | 7 W/m² | - |
* Rain latest hour (hover to see other rain measurements)
** Current wind speed in m/s (hover to see current wind gust speed)